Regional Weather Roundup
Issued by NWS Pendleton, OR

Home | Current Version | Previous Version | Text Only | Print | Product List | Glossary On
Versions: 1 2 3 4 5 6 7 8 9 10 11 12 13 14 15 16 17 18 19 20 21 22 23 24 25 26 27 28 29 30 31 32 33 34 35 36 37 38 39 40 41 42 43 44 45 46 47 48 49 50
000
ASUS46 KPDT 250125
RWRPDT
PENDLETON REGIONAL WEATHER ROUNDUP
NATIONAL WEATHER SERVICE PENDLETON OREGON
600 PM PDT MON APR 24 2017

NOTE: FAIR INDICATES FEW OR NO CLOUDS BELOW 12,000 FEET WITH NO
SIGNIFICANT WEATHER AND/OR OBSTRUCTIONS TO VISIBILITY.

# INDICATES UNOFFICIAL STATION AND DATA

WAZ520-250210-
EAST SLOPES OF WASHINGTON CASCADES

CITY            SKY/WX      TMP DP  RH  WIND    PRES   REMARKS
#CLE ELUM HS    N/A         49  38  66  W6      29.66R
#CLE ELUM LAKE  N/A         48  37  65  CALM    29.68R
#GLENWOOD       N/A         46  42  86  SW6     29.73R
#MANASTASH CYN  N/A         37  37  100 CALM    29.67R
#NELSON 3SW     N/A         44  40  86  CALM    29.93R
#NILE           N/A         44  39  82  W3      28.98R
#TEANAWAY 4NE   N/A         50  42  74  W1      N/A
#TROUT LAKE 1NE N/A         45  40  82  W9      29.75R
#TROUT LAKE 1E  N/A         46  43  89  CALM    29.75R
$$

WAZ521-250210-
SIMCOE HIGHLANDS

CITY            SKY/WX      TMP DP  RH  WIND    PRES   REMARKS
#BICKLETON HS   N/A         42  40  93  SW16    29.71R WCI 34
#CENTERVILLE 1SWN/A         46  40  79  W15     29.70R WCI 40
#GOLDENDALE 1NE N/A         46  39  76  SW2     N/A
#GOLDENDALE 4W  N/A         48  26  42  W12     29.77R WCI 43
#GOODNOE HILLS  N/A         49  45  86  W12     N/A    WCI 44
#LYLE 6NE       N/A         45  43  93  SW7     29.72R
#PITT 4SE       N/A         42  40  93  W10     29.77R
$$

WAZ026-250210-
KITTITAS VALLEY

CITY            SKY/WX      TMP DP  RH  WIND    PRES   REMARKS
ELLENSBURG AP   CLOUDY      55  37  51  E6      29.67R
#ELLENSBURG CWU N/A         54  38  55  E1      29.61R
#ELLENSBURG 3NE N/A         53  39  59  CALM    27.76R
#ELLENSBURG 1E  N/A         55  N/A N/A E1      N/A
#ELLENSBURG 13S N/A         55  37  51  SW3     N/A
#KITTITAS 4N    N/A         51  40  66  CALM    29.71R
#KITTITAS 3S    N/A         53  40  61  CALM    29.65R
#THORP 6N       N/A         48  40  74  W10     29.70R
$$

WAZ027-250210-
YAKIMA VALLEY

CITY            SKY/WX      TMP DP  RH  WIND    PRES   REMARKS
SUNNYSIDE AP    MOCLDY      54  43  66  S5      29.68R
YAKIMA AIRPORT  PTCLDY      56  41  57  S7      29.68R
YAKIMA-VAGABOND PTCLDY      54  39  57  CALM    29.65R
#DONALD 2NE     N/A         55  26  32  SE3     28.54R
#GRANDVIEW      N/A         53  43  69  CALM    29.70R
#MABTON         N/A         53  46  77  E2      29.68R
#MOXEE 2E       N/A         54   0  11  S6      29.62R
#NACHES 2SW     N/A         53  40  61  W1      29.67S
#TERRACE HTS    N/A         55  40  57  CALM    29.65R
#TOPPENISH      N/A         54  42  64  CALM    29.60R
#WEST VALLEY    N/A         54  40  59  CALM    29.66R
#W YAKIMA       N/A         54  40  59  CALM    29.68R
#WHITE SWAN 5E  N/A         55  43  64  SW2     29.68R
#WILEY CITY 3W  N/A         54  38  55  CALM    29.65R
$$

WAZ028-250210-
LOWER COLUMBIA BASIN...WASHINGTON

CITY            SKY/WX      TMP DP  RH  WIND    PRES   REMARKS
PASCO           CLOUDY      55  45  69  SW10    29.69R
PROSSER AWOS    N/A         54  46  74  CALM    29.72R
RICHLAND AWOS   CLOUDY      56  47  72  SW8     29.69R
#BENTON CITY    N/A         53  46  77  W1      29.59R
#CONNELL 5N     N/A         55  43  64  S1      29.67R
#CONNELL 5NW    N/A         54  43  66  SW7     29.62S
#ELTOPIA 6NW    N/A         55  46  72  CALM    28.66R
#KAHLOTUS       N/A         53  42  66  W13     29.67S
#KENNEWICK 3S   N/A         54  45  71  SW7     29.68R
#PATERSON       N/A         54  47  77  NW7     29.68R
#SAGEMOOR 2W    N/A         50  45  83  SW6     29.55R
#TOUCHET 2S     N/A         51  47  86  S8      29.68R
#WEST PASCO     N/A         57  45  64  SW5     29.67R
$$

WAZ029-250210-
FOOTHILLS OF THE BLUES...WASHINGTON

CITY            SKY/WX      TMP DP  RH  WIND    PRES   REMARKS
WALLA WALLA AP  RAIN        49  47  93  S13     29.72R FOG WCI 44
#CLYDE 6NW      N/A         53  41  64  W7      29.67R
#DAYTON SCHOOL  N/A         51  37  59  SE6     29.72R
#LOWDEN 2SE     N/A         52  47  83  W9      29.67R
#PLEASANT VIEW 1N/A         50  43  77  CALM    29.71R
#PRESCOTT       N/A         53  47  80  S1      29.68R
#WHITMAN COLLEGEN/A         49  46  89  N3      29.76R
#WAITSBURG 5S   N/A         47  44  89  S7      29.80R
#WAITSBURG 8N   N/A         50  N/A N/A S17     29.72R
#WALLA WALLA 5E N/A         48  45  89  S15     N/A    WCI 42
#WHITMAN MISSIONN/A         52  47  83  S3      29.72R
$$

WAZ030-250210-
BLUE MOUNTAINS...WASHINGTON

CITY            SKY/WX      TMP DP  RH  WIND    PRES   REMARKS
#DIXIE 5SE      N/A         40  38  92  SW10G28 29.62R
$$

ORZ009-041-WAZ024-250210-
COLUMBIA RIVER GORGE

CITY            SKY/WX      TMP DP  RH  WIND    PRES   REMARKS
HOOD RIVER AP   CLOUDY      48  45  89  W3      29.77R
THE DALLES AP   CLOUDY      51  47  86  NW9     29.75R
#ARLINGTON AIRPON/A         49  46  89  W2      29.73R
#CELILO DOT     N/A         52  46  80  SW2     N/A
#LYLE           N/A         50  46  86  NW7     29.77R
#MOSIER 1S      N/A         49  40  71  CALM    29.73R
#MURDOCK        N/A         50  46  86  NW8     29.73R
#RUFUS DOT      N/A         53  48  83  W8      N/A
#SMITHVILLE     N/A         50  47  89  W8      29.71R

$$

ORZ510-250210-
NORTH CENTRAL OREGON

CITY            SKY/WX      TMP DP  RH  WIND    PRES   REMARKS
#ANTELOPE       N/A         42  38  86  SW9     29.63R
#CHENOWITH 1W   N/A         43  41  93  NW15    N/A    WCI 36
#COW CYN RST AREN/A         42  40  93  SW12    N/A    WCI 35
#DUFUR          N/A         48  44  86  CALM    29.71R
#DUFUR 9E       N/A         42  41  96  NW5     29.79R
#GRASS VALLEY 1SN/A         46  42  86  W7      29.88R
#KENT DOT       N/A         45  33  63  N24     N/A    WCI 36
#MAUPIN SCHOOL  N/A         52  42  69  SW6     29.80R
#MORO SCHOOL    N/A         46  46  100 W7      29.80R
#SHANIKO 4NW    N/A         40  36  85  W15G26  29.71R WCI 32
#TYGH VALLEY 2NEN/A         50  42  74  N8      29.74R
#WAPANITIA AIRPON/A         48  41  77  W10     29.78R
#WASCO 5NE      N/A         47  43  86  W5      29.72R
$$

ORZ511-250210-
CENTRAL OREGON

CITY            SKY/WX      TMP DP  RH  WIND    PRES   REMARKS
BEND AIRPORT    MOCLDY      46  34  63  NW13    29.78R WCI 40
MADRAS AIRPORT  RAIN        43  36  76  SW18G25 29.78R WCI 35
PRINEVILLE AP   LGT RAIN    43  39  86  W13G25  29.77R WCI 36
REDMOND AIRPORT RAIN        44  36  73  W20G30  29.78R WCI 36
#ASHWOOD SCHOOL N/A         43  38  82  CALM    29.73R
#BEND 1SW       N/A         45  36  70  NW2     N/A
#BEND-AWBREY    N/A         46  37  71  E2      29.79R
#BEND-KIM LN    N/A         42  37  82  W15G33  29.74R WCI 34
#CULVER         N/A         44  38  79  W5      29.71R
#CULVER 8W      N/A         44  41  89  CALM    29.81R
#LAKE BILLY CHINN/A         44  N/A N/A NW5     29.88R
#MADRAS 4S      N/A         43  10  25  SW6     29.88R
#POWELL BUTTE 3EN/A         48  36  63  W7      N/A
#POWELL BUTTE   N/A         43  40  89  W12     29.76R WCI 37
#PRINEVILLE     N/A         47  37  68  W8      29.85R
#PRINEVILLE 3N  N/A         46  40  79  W6      29.77R
#WARM SPRINGS   N/A         50  38  63  CALM    29.74R

$$


ORZ509-250210-
EAST SLOPES OF OREGON CASCADES

CITY            SKY/WX      TMP DP  RH  WIND    PRES   REMARKS
SISTERS AWOS    N/A         43  37  79  W16G28  29.77R WCI 35
#BLUE BOX PASS  N/A         34  N/A N/A CALM    N/A
#CAMP SHERMAN   N/A         44  39  82  N1      29.86R
#LA PINE 4NW    N/A         40  34  79  NW3     29.83R
#LAVA BUTTE DOT N/A         41  31  67  S3      N/A
#SISTERS 3N     N/A         40  33  76  NW6     29.82R
#TUMALO 3W      N/A         41  35  79  NW7     29.66R
#WANOGA BUTTE D N/A         32  31  96  NW22    N/A    WCI 19

$$

ORZ044-250210-
LOWER COLUMBIA BASIN...OREGON

CITY            SKY/WX      TMP DP  RH  WIND    PRES   REMARKS
HERMISTON       LGT RAIN    55  49  80  W12     29.70R
#BOARDMAN SCHOOLN/A         54  47  77  SW2     29.70R
#BOARDMAN 8SW   N/A         53  48  83  W5      29.71R
#ECHO 8SW       N/A         52  49  89  SW6     29.72R
#I-84 EX 198 DOTN/A         50  47  89  E9      N/A
#IONE SCHOOL    N/A         51  31  46  SW2     29.72R
#UMATILLA       N/A         56  44  64  W7      29.63R
$$

ORZ507-250210-
NORTHERN FOOTHILLS OF THE BLUES

CITY            SKY/WX      TMP DP  RH  WIND    PRES   REMARKS
PENDLETON AIRPT LGT RAIN    49  46  89  W9      29.71R
#ADAMS 3WNW     N/A         47  46  96  SW5     29.72R
#ATHENA         N/A         46  44  93  SW1     29.74R
#CAYUSE         N/A         48  44  86  W5      29.72R
#HELIX SCHOOL   N/A         48  45  89  W7      29.71R
#HELIX 3N       N/A         46  44  93  SW10    29.69R
#HOLDMAN 5SE    N/A         49  46  89  SW7     29.71R
#HOLDMAN 6E     N/A         47  45  93  S7      29.52R
#M-F FERNDALE   N/A         50  46  86  CALM    29.70R
#M-F GROVE ELEM N/A         48  43  83  S1      29.70R
#M-FREEWATER 5SEN/A         47  42  83  CALM    29.72R
#PENDLETON DNTN N/A         50  44  80  CALM    29.72R
#PDT AQUATIC CTRN/A         50  45  83  CALM    29.73S
#PDT SUNRIDGE   N/A         49  45  86  CALM    29.73R
#PENDLETON 7NW  N/A         50  45  83  W3      30.00S
#PILOT ROCK 1S  N/A         48  41  77  CALM    29.74R
#PILOT ROCK     N/A         49  43  80  W6      29.75R
#TUTUILLA       N/A         49  45  86  CALM    29.72R
#UMAPINE 2E     N/A         51  47  86  CALM    29.69R
#WESTON SCHOOL  N/A         46  41  83  W2      29.72R

$$

ORZ508-250210-
SOUTHERN FOOTHILLS OF THE BLUES

CITY            SKY/WX      TMP DP  RH  WIND    PRES   REMARKS
LEXINGTON       LGT RAIN    50  46  86  SW5     29.75R
#AJAX           N/A         46  38  73  S13     29.88R WCI 40
#CONDON SCHOOL  N/A          0  -78  1  CALM    29.68R
#CONDON 5W      N/A         43  37  79  W18G26  29.68R WCI 35
#HEPPNER EOC    N/A         47  42  83  SW3     29.66R
#LEXINGTON 2SE  N/A         51  45  80  CALM    29.68R
#MIKKALO        N/A         50  42  74  S2      29.81R
#OLEX 4N        N/A         49  46  89  CALM    29.71R
#RUGGS 5NE      N/A         44  43  96  SW6     29.88R
#RUGGS 2SW      N/A         45  40  82  W6      29.74R

$$

ORZ502-503-250210-
BLUE MOUNTAINS

CITY            SKY/WX      TMP DP  RH  WIND    PRES   REMARKS
MEACHAM         LGT RAIN    41  36  82  CALM    29.70S
#BATTLE MTN DOT N/A         41  33  73  CALM    N/A
#GREENHORN 9SW  N/A         40  38  92  CALM    25.96R
#HARDMAN 10S    N/A         38  36  92  S2      29.85S
#LADD CYN SMT   N/A         44  36  73  W5      N/A
#LADD CREEK ODOTN/A         47  37  68  CALM    N/A
#LONG CREEK HS  N/A         42  40  93  CALM    N/A
#N POWDER DOT   N/A         46  36  68  NW7     N/A
#PIKES PEAK     N/A         38  37  96  N18G26  27.99S WCI 28
#TROY SCHOOL    N/A         52  47  83  CALM    29.52R
#UKIAH          N/A         44  39  82  SW3     29.64R
#WESTON 4E      N/A         39  38  96  SW3     29.70R
$$

ORZ505-250210-
JOHN DAY BASIN

CITY            SKY/WX      TMP DP  RH  WIND    PRES   REMARKS
JOHN DAY        LGT DRIZZLE 44  40  86  CALM    29.74R
#JOHN DAY KJDY  N/A         47  N/A N/A CALM    29.80R
#ANTELOPE 9ESE  N/A         46  40  79  S8      N/A
#DAYVILLE SCHOOLN/A         48  40  74  CALM    29.72S
#MITCHELL       N/A         50  42  74  NW3     29.90R
#MITCHELL 8NW   N/A         45  38  76  SW12G31 29.76R WCI 39
#MONUMENT HS    N/A         49  40  71  CALM    29.70R
#MT. VERNON 5SE N/A         41  38  89  CALM    29.69R
#SPRAY SCHOOL   N/A         51  N/A N/A CALM    N/A
$$

ORZ506-250210-
OCHOCO AND JOHN DAY HIGHLANDS

CITY            SKY/WX      TMP DP  RH  WIND    PRES   REMARKS
#HORSE RIDGE DO N/A         46  30  53  W16     N/A    WCI 39
#PAULINA SCHOOL N/A         47  34  60  SW3     N/A
#PINE MTN OBS   N/A         33  30  89  SW6     N/A
#PRAIRIE CITY   N/A         45  38  76  NW5     29.89R
#SENECA 9NW     N/A         37  35  92  CALM    29.74R
$$

ORZ049-250210-
GRANDE RONDE VALLEY

CITY            SKY/WX      TMP DP  RH  WIND    PRES   REMARKS
LA GRANDE       CLOUDY      45  39  79  N10     29.70R
#COVE SCHOOL    N/A         45  41  86  CALM    29.76R
#COVE 6NW       N/A         44  39  82  W8      29.73R
#ELGIN 3N       N/A         44  36  73  W6      29.70R
#ELGIN 1E       N/A         46  39  76  CALM    N/A
#IMBLER SCHOOL  N/A         43  37  79  W3      29.70R
#ISLAND CITY 4N N/A         51  46  83  W3      29.86R
#UNION 1S       N/A         47  42  83  N1      29.71R
$$

ORZ050-250210-
WALLOWA COUNTY

CITY            SKY/WX      TMP DP  RH  WIND    PRES   REMARKS
JOSEPH AIRPORT  CLOUDY      43  37  79  N8      29.69R
#IMNAHA SCHOOL  N/A         53  40  61  E5      29.69R
#IMNAHA 10S     N/A         46  42  86  S5      29.69R
#JOSEPH 3N      N/A         43  36  76  NW9     29.74R
#JOSEPH 3W      N/A         40  39  96  CALM    29.56R
#LOSTINE        N/A         45  38  76  N5      29.50R
#LOSTINE 3SE    N/A         44  38  79  VRB7    29.72R
#MT HOWARD 8000 N/A         28  26  92  NW1     29.65R
#PROMISE 1S     N/A         43  39  86  SW5     29.79R
#WALLOWA SCHOOL N/A         47  38  71  CALM    29.68R



$$



USA.gov is the U.S. government's official web portal to all federal, state and local government web resources and services.